Theta_e
322 323 324 325 326 326 326 326 327 326 325 324 324 326 326 327 328 323 315 322 325 330 328 322 321 319 318 314 317 313 300 294 298 301 303 305 305 308 311 311 311 315 317 321 329
322 323 323 324 325 325 326 326 326 326 325 325 324 325 326 327 321 316 326 333 331 331 322 318 315 316 310 310 313 306 299 300 303 304 305 308 304 306 306 306 308 316 324 328 327
319 321 322 323 324 325 325 325 325 326 325 325 324 323 325 325 312 308 325 330 333 329 325 323 319 315 307 308 309 307 302 307 308 309 312 311 309 307 304 302 307 311 320 324 323
318 319 320 321 323 324 324 324 325 325 325 325 324 323 323 319 287 316 329 329 331 325 322 319 315 308 304 302 308 302 307 308 310 310 311 309 312 308 304 305 309 311 323 323 322
316 317 318 319 321 322 323 324 324 324 324 325 324 323 318 306 305 321 328 330 327 320 316 315 311 308 303 302 304 301 305 308 310 309 308 311 308 307 308 312 311 316 323 322 321
314 315 316 317 318 320 322 323 323 323 323 324 324 323 310 295 311 314 323 325 322 317 314 314 311 310 305 303 300 302 305 307 308 307 307 307 307 307 308 311 312 309 314 320 321
313 314 315 316 316 318 320 321 322 322 322 324 324 316 305 298 307 310 315 321 321 319 312 315 314 309 306 303 307 305 299 301 302 305 304 307 302 304 309 311 311 311 307 309 321
312 312 313 314 315 316 318 319 321 321 322 322 322 314 301 311 311 308 308 319 321 320 317 316 315 310 307 307 304 298 297 292 300 303 304 302 295 304 307 306 307 309 308 308 310
310 311 311 313 314 315 316 317 319 321 321 322 314 308 300 314 306 309 307 312 318 317 317 318 313 306 305 298 293 293 287 291 295 303 301 300 295 303 307 307 303 302 305 307 308
309 309 309 310 313 314 315 316 316 316 315 316 313 302 304 301 305 307 306 311 314 312 312 309 305 298 298 295 286 289 289 292 291 296 299 298 296 300 304 304 302 302 303 304 307
308 308 308 309 311 312 311 308 302 300 305 300 302 300 303 306 309 304 305 310 311 306 299 302 296 293 295 298 297 294 291 290 293 299 296 293 295 298 301 301 301 302 302 302 305
307 307 308 308 310 311 309 301 301 300 294 302 303 303 305 306 299 301 307 303 302 296 299 297 293 297 299 300 298 295 292 291 294 298 294 294 293 296 300 301 301 301 301 302 303
306 306 307 308 309 307 303 302 306 304 293 296 300 301 302 304 298 298 302 304 299 296 296 292 294 299 298 296 295 295 292 292 291 295 296 293 292 294 297 300 301 302 302 303 303
305 306 306 307 302 301 300 307 307 306 285 288 294 298 303 303 297 303 303 302 299 294 296 294 298 297 296 294 296 290 296 295 293 290 285 293 284 290 293 296 299 301 301 303 303
304 306 305 307 299 296 301 306 305 301 272 289 293 306 302 297 298 297 303 300 294 295 294 291 294 293 293 294 296 292 297 293 293 290 287 289 286 288 293 293 296 299 299 300 302
304 305 305 302 300 300 303 305 300 281 273 285 293 294 294 296 294 298 297 301 300 295 296 293 298 297 296 298 298 298 293 293 291 289 284 288 286 287 290 294 297 299 299 301 302
305 305 303 301 294 302 304 297 280 275 285 283 286 292 291 291 292 293 292 291 290 286 286 291 292 296 298 293 296 294 290 283 281 281 280 287 285 289 294 297 296 297 297 299 300
304 304 302 301 300 301 297 287 274 281 281 288 289 291 287 291 291 291 290 287 293 290 286 283 282 291 296 294 291 292 291 281 272 275 278 284 283 288 297 300 301 301 302 302 300
303 299 297 298 301 300 288 276 278 282 285 286 288 284 285 289 289 289 288 288 290 293 284 283 283 292 294 295 296 290 287 292 281 278 276 281 287 294 296 297 297 297 298 296 296
296 294 293 298 300 295 283 278 281 287 288 289 282 286 282 285 285 287 287 292 290 294 294 287 281 289 292 294 295 292 294 285 286 277 276 279 280 285 291 294 296 295 295 295 296
293 286 293 298 298 286 278 280 283 287 290 286 285 284 285 285 287 286 285 290 293 292 295 290 285 284 291 289 289 289 288 287 286 282 276 275 280 291 293 293 293 294 295 295 294
290 280 295 297 282 284 280 283 286 285 288 288 288 288 285 288 286 286 286 289 295 294 289 292 288 279 285 292 294 293 290 289 282 280 283 280 281 294 295 295 295 294 295 296 296
285 285 296 294 278 279 282 284 285 284 283 285 284 288 289 288 284 286 288 294 295 293 291 293 286 277 281 286 289 289 290 292 290 285 280 280 283 293 293 292 294 293 293 295 296
285 279 286 288 285 280 279 281 281 286 286 285 286 288 287 286 289 286 287 292 295 295 297 296 287 283 279 282 287 285 288 290 289 283 283 283 285 289 292 292 293 294 293 294 295
286 281 281 279 280 282 282 282 280 280 284 287 284 284 285 284 286 284 288 290 294 295 295 293 283 285 286 286 287 287 288 288 287 288 283 286 286 290 292 294 294 293 294 294 294
280 281 283 283 282 281 282 279 281 283 284 282 282 285 285 281 287 285 288 289 289 293 292 293 284 285 279 287 286 282 286 288 289 289 289 289 287 294 293 291 292 292 293 293 293
287 287 284 283 280 279 279 280 280 283 285 287 285 285 284 286 289 292 293 292 291 290 290 288 284 284 279 284 283 276 283 284 284 288 289 285 290 293 289 292 292 291 293 293 293
Wind_Speed
14 13 16 19 18 16 14 13 13 12 10 8 7 7 6 6 7 3 6 4 3 5 6 7 6 7 3 3 0 3 3 2 4 5 3 3 1 3 4 4 3 3 5 3 14
14 14 14 15 18 18 16 15 14 13 11 9 8 6 6 4 4 11 9 9 7 3 4 4 7 9 1 3 1 4 3 6 5 5 2 4 2 3 3 2 1 5 6 9 9
14 15 16 16 16 18 18 17 14 13 12 10 8 7 5 3 5 8 18 23 13 9 2 3 5 4 2 3 4 4 5 6 11 3 5 2 7 3 4 2 4 7 11 9 6
15 15 16 17 16 16 19 19 16 15 14 11 10 7 6 3 9 1 2 21 16 10 4 2 3 1 2 5 4 3 7 5 7 3 4 2 3 7 1 5 2 4 13 9 11
15 15 14 16 17 16 17 20 18 16 15 14 12 10 5 7 9 3 2 8 13 10 10 7 6 4 5 4 6 4 6 6 8 8 6 3 2 3 8 9 3 7 13 12 9
16 13 14 14 15 18 16 18 19 17 17 16 14 13 3 15 8 9 5 7 8 8 8 8 8 7 4 8 5 3 5 8 8 8 6 5 6 1 5 6 9 6 10 11 14
18 15 14 14 15 16 17 16 17 17 18 18 16 10 10 14 6 8 6 7 5 9 10 11 9 5 3 7 8 6 5 7 4 4 4 6 6 7 9 8 10 11 9 10 15
18 16 15 14 15 15 17 16 14 16 18 20 17 10 10 9 21 13 7 6 9 7 8 6 6 2 5 2 7 3 2 5 2 2 6 2 15 6 8 6 11 12 9 10 11
19 17 16 16 15 15 15 16 13 12 16 18 11 9 10 10 12 14 11 7 8 6 9 2 2 5 2 4 3 2 3 6 8 8 5 9 3 10 13 13 9 10 10 9 10
21 18 18 17 16 16 15 15 10 8 7 7 6 11 11 15 4 7 7 8 7 8 5 5 4 4 5 7 11 8 7 7 7 4 10 17 20 9 10 10 10 9 9 8 8
21 20 19 18 17 18 14 4 5 6 11 10 4 3 4 11 8 8 9 8 9 5 12 7 8 23 26 14 13 8 8 9 6 13 11 9 16 15 11 8 10 11 9 9 10
22 21 21 19 20 19 14 13 12 2 5 19 18 21 8 9 8 12 16 13 14 16 8 8 25 17 10 11 11 12 12 15 5 8 7 8 13 10 10 9 9 11 9 9 8
23 23 22 20 20 16 17 21 9 6 5 7 25 16 20 8 10 21 22 14 17 17 20 14 15 12 15 16 17 17 19 14 6 6 4 2 11 7 5 7 7 8 7 7 10
24 24 22 22 15 11 16 18 8 3 10 11 13 15 12 10 10 17 23 16 7 26 18 13 19 18 13 18 17 19 11 7 6 4 6 2 11 9 4 10 14 13 11 12 11
24 24 24 25 6 13 10 11 8 5 15 15 16 10 15 14 6 14 21 13 16 11 12 17 13 16 19 25 15 12 8 7 6 5 1 12 6 6 6 11 17 11 11 11 12
26 24 24 16 11 9 12 12 10 14 10 12 17 17 20 25 10 12 22 14 6 11 17 21 5 15 16 13 15 4 4 5 4 4 11 18 9 12 12 18 17 12 10 12 12
26 24 20 10 15 11 9 13 12 18 11 9 19 22 26 18 22 10 26 29 16 12 17 18 15 5 11 8 12 8 8 5 5 8 13 8 6 20 13 19 11 12 11 11 10
23 24 19 13 12 10 6 16 19 21 14 6 11 23 29 24 22 19 24 22 26 20 8 16 16 24 14 17 9 15 16 8 9 6 6 4 11 15 17 22 17 19 20 15 8
23 11 8 12 11 10 9 19 10 13 11 16 19 17 19 18 14 22 20 26 30 24 12 14 13 8 10 6 19 9 13 13 5 2 3 4 6 9 9 17 11 9 2 3 3
11 11 13 12 12 12 13 26 8 7 17 9 22 19 26 24 17 23 21 23 23 28 17 7 6 6 22 6 10 9 9 6 5 6 9 4 4 9 4 7 6 6 8 3 4
5 6 6 14 8 9 16 14 6 5 9 14 14 12 22 22 24 20 18 17 27 31 22 7 5 6 13 15 23 6 9 4 4 6 6 1 6 11 15 3 8 7 5 3 1
6 7 8 14 11 5 13 9 9 6 4 6 2 6 9 19 21 21 27 23 31 27 27 17 3 5 23 14 15 19 16 14 6 6 4 1 7 2 8 8 7 2 4 6 5
9 4 7 13 11 9 5 5 2 3 5 7 2 4 13 12 12 8 20 21 29 22 26 19 5 4 4 4 2 15 10 15 6 4 9 9 12 5 3 1 1 5 4 2 5
4 6 3 8 4 6 4 4 4 3 3 6 7 2 3 17 10 20 16 16 22 21 25 19 6 8 11 13 9 11 16 14 15 9 11 11 15 4 9 9 7 6 7 8 7
3 4 5 7 10 6 9 5 7 4 2 9 3 12 9 13 22 8 14 11 15 24 20 15 12 12 5 6 7 10 18 21 21 26 14 21 19 21 15 15 4 2 6 8 8
6 5 1 2 11 17 11 15 11 6 9 7 7 14 18 12 14 12 10 12 12 19 22 9 9 5 2 4 5 4 9 11 19 18 17 16 14 16 6 4 5 5 6 6 4
3 2 6 6 10 11 8 6 19 9 5 6 11 5 9 9 19 10 14 14 15 21 19 11 6 9 11 9 6 6 12 9 5 6 13 13 20 3 2 4 4 5 6 5 4
Wind_Direction
244 254 254 246 238 233 234 230 227 221 212 217 227 246 272 293 303 233 237 203 114 14 334 320 318 294 305 283 203 16 52 247 260 20 339 332 43 351 142 95 46 28 113 162 146
256 249 247 254 244 237 231 226 227 224 217 211 211 222 247 281 265 253 238 215 176 70 358 350 311 337 7 274 261 112 145 228 231 349 95 359 309 159 85 81 123 60 52 117 135
259 256 254 249 246 240 235 227 220 218 219 208 204 206 214 254 287 242 213 225 207 144 198 327 315 330 300 325 241 197 213 264 287 28 21 59 0 328 123 134 211 200 165 158 156
265 257 256 250 246 238 237 230 220 208 211 206 198 195 198 225 234 224 267 208 190 137 140 212 271 253 239 251 247 245 277 253 285 359 340 346 325 339 271 233 231 152 164 154 173
260 262 260 261 251 243 234 233 226 210 204 202 194 171 156 225 230 244 125 172 156 151 178 183 191 188 204 226 271 221 243 254 294 310 291 310 268 244 295 286 279 123 151 166 184
256 256 252 257 261 254 243 229 226 217 204 202 196 175 210 237 223 254 109 118 152 148 187 190 195 206 264 229 223 276 253 251 244 275 290 275 264 131 273 309 313 184 190 181 182
256 247 250 250 253 252 250 235 225 216 211 204 201 179 233 226 237 228 240 166 170 172 177 217 230 179 187 292 268 248 292 306 240 274 279 328 276 229 245 257 270 279 210 209 204
251 249 245 243 248 250 246 247 230 222 212 208 200 197 241 205 245 271 280 179 179 185 207 212 243 249 167 292 350 9 295 247 267 239 268 228 257 236 249 239 260 266 262 215 224
248 246 244 240 238 242 240 240 242 231 223 209 187 186 242 193 218 237 234 209 160 208 199 161 165 184 319 143 344 269 224 230 267 226 257 195 281 242 223 251 250 252 260 248 241
245 243 240 242 239 233 235 227 232 254 221 245 202 165 239 213 151 192 200 234 165 163 118 156 186 173 189 169 211 203 216 234 213 230 224 240 256 251 227 226 258 265 272 270 254
240 240 235 234 236 234 224 202 196 221 199 205 182 198 98 189 188 179 179 191 161 155 182 188 177 206 205 197 203 185 228 226 219 231 246 236 254 248 241 235 244 258 264 265 264
240 236 234 233 229 229 215 210 205 180 207 221 245 210 240 180 164 184 170 181 182 195 157 171 217 211 145 187 196 215 236 250 270 269 210 253 266 244 241 236 220 226 245 261 270
237 235 229 231 228 227 218 220 213 357 251 202 216 213 215 214 206 189 179 185 188 186 199 194 227 180 183 193 199 219 218 230 223 323 274 264 274 262 264 261 272 263 261 255 238
237 231 224 220 229 219 222 216 179 104 239 213 187 213 196 233 230 175 194 173 180 206 192 220 228 184 195 206 197 213 209 214 192 124 241 73 276 246 252 272 269 270 258 256 254
235 226 221 209 205 194 213 176 170 160 231 175 182 167 175 190 122 202 181 202 206 174 176 210 168 192 198 211 190 229 192 199 187 200 82 250 260 279 197 253 257 261 248 243 244
224 222 215 216 205 224 187 185 177 218 215 174 146 178 175 186 188 179 180 189 189 191 211 216 173 183 208 212 195 139 104 193 225 168 235 237 215 264 246 255 260 261 244 253 260
217 215 210 188 210 182 188 192 217 222 139 179 166 174 185 185 180 194 184 187 188 199 197 215 228 212 184 173 191 166 137 217 225 215 242 205 179 241 261 253 246 253 237 246 252
209 211 213 202 196 186 178 223 220 204 175 168 165 180 192 180 196 180 190 188 207 194 163 189 205 221 199 201 173 192 189 192 203 184 229 171 206 244 231 257 247 248 261 261 288
212 203 199 204 188 170 208 227 234 183 175 154 166 183 188 183 174 185 192 191 193 194 192 190 226 198 197 160 177 194 200 199 89 27 63 221 288 305 251 260 242 235 349 93 53
202 197 210 179 178 196 210 223 219 206 159 170 181 186 195 190 174 185 185 193 193 195 195 193 216 213 195 142 228 195 148 181 193 204 234 233 234 243 330 306 318 122 120 115 63
184 195 184 159 164 225 214 208 233 267 157 162 176 193 196 188 199 187 175 177 193 194 197 186 136 206 152 200 196 151 196 167 156 156 189 265 250 220 225 220 121 128 162 114 65
194 185 153 145 189 224 221 153 164 170 112 80 261 183 191 182 192 193 207 202 196 187 193 203 156 168 196 188 193 208 203 188 181 184 195 130 268 278 147 144 110 127 353 4 340
164 142 164 165 208 214 151 121 119 153 131 139 162 217 215 188 187 161 183 204 187 183 183 181 189 137 53 18 335 199 198 198 191 109 196 188 237 277 210 189 32 22 42 334 312
126 157 203 185 179 147 105 145 97 36 142 132 149 162 269 207 209 192 196 166 180 183 194 172 155 195 190 209 143 194 205 198 198 219 208 215 246 267 295 290 333 341 349 29 27
145 170 167 186 171 172 174 165 153 137 192 135 140 200 244 207 188 191 192 172 171 192 183 188 190 191 165 102 142 195 202 210 209 222 211 238 242 260 252 278 269 303 59 44 30
129 144 68 195 182 172 179 197 172 144 170 170 164 193 215 236 218 171 141 156 172 180 189 176 193 128 218 144 135 183 215 214 225 226 225 235 247 242 68 65 5 68 72 55 49
194 118 111 157 167 170 201 179 202 141 241 158 179 187 234 222 240 209 159 171 164 167 187 170 128 170 205 131 92 308 205 184 191 201 210 222 237 291 122 197 108 105 68 43 5